EW3307 Weather Reports


time (UTC)temp
C
wind
direction
speed
KPH
gust
KPH
rain 1hr
cm
rain 24hr
cm
rain mn
cm
humidity
%
barometer
mb
20260507155528 30 147 0.0 0.0 0.00 0.00 0.00 17 1014.2
20260507154527 30 123 0.0 1.6 0.00 0.00 0.00 17 1014.4
20260507153528 29 143 0.0 0.0 0.00 0.00 0.00 18 1014.6
20260507152525 28 151 0.0 0.0 0.00 0.00 0.00 20 1014.6
20260507151524 28 140 0.0 0.0 0.00 0.00 0.00 19 1014.7
20260507150524 27 148 0.0 0.0 0.00 0.00 0.00 20 1014.5
20260507145521 26 139 0.0 1.6 0.00 0.00 0.00 21 1014.3
20260507144516 26 180 1.6 1.6 0.00 0.00 0.00 25 1014.6
20260507143517 24 147 1.6 1.6 0.00 0.00 0.00 27 1014.5
20260507142515 23 138 0.0 0.0 0.00 0.00 0.00 30 1014.5
20260507141515 22 143 0.0 0.0 0.00 0.00 0.00 32 1014.5
20260507140514 21 77 3.2 3.2 0.00 0.00 0.00 32 1014.4
20260507135514 19 143 0.0 0.0 0.00 0.00 0.00 36 1014.4
20260507134514 18 140 0.0 0.0 0.00 0.00 0.00 41 1014.6
20260507133511 17 73 0.0 1.6 0.00 0.00 0.00 40 1014.3
20260507132506 17 97 1.6 1.6 0.00 0.00 0.00 37 1014.2
20260507131504 17 119 0.0 0.0 0.00 0.00 0.00 39 1014.5
20260507130504 17 144 0.0 0.0 0.00 0.00 0.00 38 1014.3
20260507125501 17 145 0.0 0.0 0.00 0.00 0.00 39 1014.2
20260507124459 17 138 0.0 0.0 0.00 0.00 0.00 38 1013.9
20260507123455 17 148 0.0 0.0 0.00 0.00 0.00 38 1013.8
20260507122452 17 144 0.0 0.0 0.00 0.00 0.00 36 1013.9
20260507121450 16 124 0.0 1.6 0.00 0.00 0.00 38 1013.8
20260507120449 16 136 0.0 0.0 0.00 0.00 0.00 37 1013.7
20260507115448 16 130 0.0 0.0 0.00 0.00 0.00 37 1013.9
20260507114445 17 124 0.0 0.0 0.00 0.00 0.00 38 1014.1
20260507113446 17 149 0.0 0.0 0.00 0.00 0.00 37 1014.0
20260507112440 17 114 0.0 1.6 0.00 0.00 0.00 37 1014.2
20260507111440 17 143 0.0 0.0 0.00 0.00 0.00 36 1014.0
20260507110438 17 144 0.0 0.0 0.00 0.00 0.00 35 1014.0
20260507105438 17 134 0.0 0.0 0.00 0.00 0.00 35 1014.4
20260507104437 17 146 0.0 0.0 0.00 0.00 0.00 35 1014.4
20260507103435 17 139 0.0 0.0 0.00 0.00 0.00 36 1014.4
20260507102434 17 144 0.0 0.0 0.00 0.00 0.00 35 1014.5
20260507101431 17 179 1.6 1.6 0.00 0.00 0.00 35 1014.5
20260507100431 18 136 0.0 0.0 0.00 0.00 0.00 35 1014.5
20260507095427 18 134 0.0 0.0 0.00 0.00 0.00 34 1014.6
20260507094426 18 143 0.0 1.6 0.00 0.00 0.00 34 1014.8
20260507093421 17 147 0.0 0.0 0.00 0.00 0.00 34 1014.7
20260507092420 18 159 0.0 0.0 0.00 0.00 0.00 33 1014.8
20260507091420 18 151 0.0 0.0 0.00 0.00 0.00 33 1014.7
20260507090418 18 150 0.0 0.0 0.00 0.00 0.00 33 1014.8
20260507085418 18 143 0.0 0.0 0.00 0.00 0.00 33 1014.9
20260507084417 19 144 0.0 0.0 0.00 0.00 0.00 33 1015.0
20260507083417 19 139 0.0 0.0 0.00 0.00 0.00 33 1014.8
20260507082415 20 138 0.0 0.0 0.00 0.00 0.00 32 1015.1
20260507081414 20 141 0.0 0.0 0.00 0.00 0.00 32 1015.1
20260507080413 20 150 0.0 0.0 0.00 0.00 0.00 31 1015.1
20260507075410 21 143 0.0 0.0 0.00 0.00 0.00 30 1015.0
20260507074410 21 144 0.0 0.0 0.00 0.00 0.00 29 1015.0
20260507073410 21 11 1.6 3.2 0.00 0.00 0.00 28 1015.3
20260507072404 21 140 0.0 0.0 0.00 0.00 0.00 29 1015.4
20260507071404 21 155 0.0 1.6 0.00 0.00 0.00 29 1015.3
20260507070404 21 104 0.0 1.6 0.00 0.00 0.00 29 1015.3
20260507065403 21 151 0.0 0.0 0.00 0.00 0.00 29 1015.1
20260507064359 21 149 0.0 0.0 0.00 0.00 0.00 29 1015.1
20260507063359 21 101 0.0 0.0 0.00 0.00 0.00 30 1015.4
20260507062358 21 144 0.0 0.0 0.00 0.00 0.00 30 1015.3
20260507061354 21 149 0.0 0.0 0.00 0.00 0.00 31 1015.1
20260507060355 21 150 0.0 0.0 0.00 0.00 0.00 32 1015.3
20260507055352 21 146 0.0 0.0 0.00 0.00 0.00 30 1015.1
20260507054351 22 152 0.0 0.0 0.00 0.00 0.00 29 1014.9
20260507053347 22 138 0.0 1.6 0.00 0.00 0.00 29 1015.1
20260507052341 22 124 0.0 0.0 0.00 0.00 0.00 29 1015.1
20260507051337 22 141 0.0 1.6 0.00 0.00 0.00 29 1015.3
20260507050335 22 144 1.6 1.6 0.00 0.00 0.00 29 1015.1
20260507045335 21 147 0.0 0.0 0.00 0.00 0.00 31 1015.0
20260507044335 22 149 0.0 0.0 0.00 0.00 0.00 30 1015.0
20260507043333 22 119 0.0 0.0 0.00 0.00 0.00 29 1014.9
20260507042331 22 146 0.0 0.0 0.00 0.00 0.00 29 1014.7
20260507041331 22 149 0.0 0.0 0.00 0.00 0.00 30 1014.6
20260507040330 23 150 0.0 0.0 0.00 0.00 0.00 30 1014.4
20260507035327 22 128 0.0 0.0 0.00 0.00 0.00 30 1014.4
20260507034322 22 150 0.0 0.0 0.00 0.00 0.00 30 1014.3
20260507033318 22 147 0.0 0.0 0.00 0.00 0.00 29 1014.4
20260507032316 22 152 0.0 0.0 0.00 0.00 0.00 30 1014.2
20260507031316 23 152 0.0 0.0 0.00 0.00 0.00 29 1013.9
20260507030316 23 156 0.0 0.0 0.00 0.00 0.00 28 1013.6
20260507025315 25 154 0.0 0.0 0.00 0.00 0.00 27 1013.6
20260507024315 25 156 0.0 0.0 0.00 0.00 0.00 26 1013.4
20260507023312 25 151 0.0 1.6 0.00 0.00 0.00 26 1013.5
20260507022312 25 191 0.0 0.0 0.00 0.00 0.00 25 1013.3
20260507021310 26 144 0.0 0.0 0.00 0.00 0.00 25 1013.4
20260507020310 26 180 0.0 1.6 0.00 0.00 0.00 25 1013.2
20260507015310 26 171 0.0 0.0 0.00 0.00 0.00 24 1012.9
20260507014309 27 158 0.0 0.0 0.00 0.00 0.00 24 1013.2
20260507013309 27 175 1.6 1.6 0.00 0.00 0.00 23 1013.1
20260507012308 28 200 0.0 1.6 0.00 0.00 0.00 23 1012.9
20260507011308 28 187 1.6 1.6 0.00 0.00 0.00 23 1012.9
20260507010303 29 269 1.6 1.6 0.00 0.00 0.00 22 1012.9
20260507005305 30 147 0.0 1.6 0.00 0.00 0.00 22 1013.1
20260507004304 29 162 1.6 1.6 0.00 0.00 0.00 22 1013.1
20260507003301 30 158 0.0 0.0 0.00 0.00 0.00 22 1012.8
20260507002259 30 211 1.6 3.2 0.00 0.00 0.00 22 1013.1
20260507001254 31 161 0.0 1.6 0.00 0.00 0.00 21 1012.7
20260507000251 31 35 3.2 4.8 0.00 0.00 0.00 21 1012.6
20260506235249 30 169 0.0 0.0 0.00 0.00 0.00 22 1013.2
20260506234244 30 194 1.6 1.6 0.00 0.00 0.00 22 1012.8
20260506233244 31 308 3.2 3.2 0.00 0.00 0.00 22 1013.1
20260506232241 30 251 0.0 1.6 0.00 0.00 0.00 22 1013.1
20260506231237 30 212 1.6 3.2 0.00 0.00 0.00 22 1013.3
20260506230236 30 219 0.0 1.6 0.00 0.00 0.00 22 1013.3
20260506225236 31 222 1.6 1.6 0.00 0.00 0.00 21 1013.5
20260506224236 30 265 1.6 1.6 0.00 0.00 0.00 22 1013.5
20260506223233 31 203 1.6 1.6 0.00 0.00 0.00 22 1013.7
20260506222232 30 252 1.6 3.2 0.00 0.00 0.00 22 1013.7
20260506221228 31 162 0.0 0.0 0.00 0.00 0.00 22 1013.6
20260506220225 30 175 1.6 1.6 0.00 0.00 0.00 22 1013.9
20260506215224 31 178 3.2 3.2 0.00 0.00 0.00 22 1014.0
20260506214224 30 125 0.0 0.0 0.00 0.00 0.00 22 1014.4
20260506213219 29 194 1.6 3.2 0.00 0.00 0.00 23 1014.6
20260506212217 30 176 1.6 3.2 0.00 0.00 0.00 23 1014.4
20260506211216 29 231 4.8 9.7 0.00 0.00 0.00 23 1014.8
20260506210215 28 210 1.6 1.6 0.00 0.00 0.00 24 1014.7
20260506205213 28 253 1.6 3.2 0.00 0.00 0.00 24 1014.9
20260506204208 28 271 1.6 3.2 0.00 0.00 0.00 24 1015.3
20260506203203 29 161 0.0 1.6 0.00 0.00 0.00 24 1015.3
20260506202203 28 157 0.0 1.6 0.00 0.00 0.00 24 1015.6
20260506201202 28 209 1.6 3.2 0.00 0.00 0.00 24 1015.6
20260506200202 28 176 1.6 3.2 0.00 0.00 0.00 24 1015.6
20260506195200 28 284 4.8 9.7 0.00 0.00 0.00 24 1015.6
20260506194200 27 260 1.6 3.2 0.00 0.00 0.00 25 1015.9
20260506193200 27 114 1.6 1.6 0.00 0.00 0.00 25 1015.7
20260506192200 27 221 3.2 3.2 0.00 0.00 0.00 25 1015.9
20260506191158 28 189 0.0 0.0 0.00 0.00 0.00 25 1015.9
20260506190158 27 155 0.0 1.6 0.00 0.00 0.00 26 1016.1
20260506185157 28 187 3.2 3.2 0.00 0.00 0.00 25 1016.2
20260506184152 26 113 1.6 1.6 0.00 0.00 0.00 26 1016.5
20260506183151 26 164 0.0 1.6 0.00 0.00 0.00 26 1016.6
20260506182151 26 199 4.8 4.8 0.00 0.00 0.00 27 1016.4
20260506181146 26 79 3.2 4.8 0.00 0.00 0.00 28 1016.8
20260506180145 26 144 1.6 1.6 0.00 0.00 0.00 28 1016.7
20260506175144 26 115 1.6 3.2 0.00 0.00 0.00 28 1016.9
20260506174139 25 157 0.0 1.6 0.00 0.00 0.00 29 1017.0
20260506173139 26 149 0.0 0.0 0.00 0.00 0.00 28 1016.9
20260506172138 25 137 0.0 1.6 0.00 0.00 0.00 30 1017.0
20260506171134 24 148 1.6 1.6 0.00 0.00 0.00 31 1017.0
20260506170128 26 159 0.0 0.0 0.00 0.00 0.00 30 1017.1
20260506165127 25 134 0.0 0.0 0.00 0.00 0.00 30 1016.7
20260506164127 25 134 0.0 0.0 0.00 0.00 0.00 30 1016.9
20260506163123 24 130 0.0 1.6 0.00 0.00 0.00 31 1016.9
20260506162122 24 144 0.0 0.0 0.00 0.00 0.00 31 1016.7
20260506161121 24 141 0.0 0.0 0.00 0.00 0.00 32 1016.6